Voltar ao catálogo

ORBCOMM FM 15

AtivoComunicaçõesLEO
NORAD 25418·PAYLOAD·🇺🇸 United States

Lançado Aug 2, 1998 de Cape Canaveral Space Force Station

Loading…

Próximas Passagens (próximas 24 horas)

TLE

AtualizadoSource: Space-Track

Época: Sep 13, 2026, 11:52 UTC

1 25418U 98046F   26256.49488882  .00000602  00000-0  23523-3 0  9995
2 25418  44.9953 184.1856 0004540  32.8527 327.2603 14.39819564469551

Acompanhe ORBCOMM FM 15 em tempo real com AllMySat

Download on the App Store